EW2112 Weather Reports


Display with metric or nautical units.
time (UTC)temp
F
wind
direction
speed
MPH
gust
MPH
rain 1hr
in
rain 24hr
in
rain mn
in
humidity
%
barometer
mb
20260902163056 69 344 3.0 6.0 0.00 0.00 0.00 52 1007.3
20260902161554 69 348 3.0 7.0 0.00 0.00 0.00 52 1007.6
20260902160112 69 355 5.0 9.0 0.00 0.00 0.00 52 1007.7
20260902154557 68 360 2.0 8.0 0.00 0.00 0.00 53 1007.8
20260902153050 68 342 3.0 6.0 0.00 0.00 0.00 53 1008.1
20260902151549 68 5 4.0 8.0 0.00 0.00 0.00 53 1008.1
20260902150045 68 355 2.0 6.0 0.00 0.00 0.00 54 1008.3
20260902144543 68 5 4.0 9.0 0.00 0.00 0.00 54 1008.4
20260902143044 68 22 3.0 8.0 0.00 0.00 0.00 53 1008.6
20260902141538 68 23 4.0 9.0 0.00 0.00 0.00 54 1008.8
20260902140039 68 355 4.0 9.0 0.00 0.00 0.00 54 1008.9
20260902134539 67 355 3.0 6.0 0.00 0.00 0.00 54 1009.0
20260902133045 68 346 3.0 5.0 0.00 0.00 0.00 53 1009.2
20260902131536 68 344 3.0 6.0 0.00 0.00 0.00 52 1009.1
20260902130033 68 344 3.0 5.0 0.00 0.00 0.00 53 1009.5
20260902124536 68 355 3.0 7.0 0.00 0.00 0.00 53 1009.6
20260902123032 68 16 3.0 5.0 0.00 0.00 0.00 54 1009.8
20260902121532 68 345 2.0 4.0 0.00 0.00 0.00 53 1009.9
20260902120041 68 10 2.0 5.0 0.00 0.00 0.00 53 1010.1
20260902114543 69 5 3.0 5.0 0.00 0.00 0.00 52 1010.0
20260902113030 69 318 2.0 4.0 0.00 0.00 0.00 52 1010.2
20260902111540 69 317 1.0 3.0 0.00 0.00 0.00 52 1010.2
20260902110052 68 317 1.0 4.0 0.00 0.00 0.00 53 1010.3
20260902104530 69 286 0.0 2.0 0.00 0.00 0.00 51 1010.2
20260902103028 71 286 1.0 2.0 0.00 0.00 0.00 49 1010.1
20260902101528 72 286 0.0 2.0 0.00 0.00 0.00 46 1010.0
20260902100027 73 286 1.0 3.0 0.00 0.00 0.00 44 1009.8
20260902094536 73 273 0.0 3.0 0.00 0.00 0.00 43 1009.9
20260902093026 74 268 0.0 4.0 0.00 0.00 0.00 42 1009.9
20260902091526 74 284 3.0 7.0 0.00 0.00 0.00 41 1009.9
20260902090026 74 304 1.0 7.0 0.00 0.00 0.00 41 1009.7
20260902084533 75 291 0.0 5.0 0.00 0.00 0.00 40 1009.6
20260902083025 76 294 2.0 8.0 0.00 0.00 0.00 39 1009.4
20260902081525 76 288 1.0 6.0 0.00 0.00 0.00 39 1009.3
20260902080022 77 293 2.0 8.0 0.00 0.00 0.00 37 1009.2
20260902074523 78 294 3.0 9.0 0.00 0.00 0.00 37 1009.0
20260902073022 79 294 5.0 11.0 0.00 0.00 0.00 36 1008.9
20260902071532 79 264 2.0 10.0 0.00 0.00 0.00 35 1008.7
20260902070019 80 292 4.0 14.0 0.00 0.00 0.00 34 1008.6
20260902064524 81 288 2.0 9.0 0.00 0.00 0.00 33 1008.5
20260902063029 82 283 7.0 13.0 0.00 0.00 0.00 32 1008.4
20260902061530 82 289 4.0 16.0 0.00 0.00 0.00 32 1008.4
20260902060018 83 273 4.0 11.0 0.00 0.00 0.00 31 1008.3
20260902054525 82 259 3.0 10.0 0.00 0.00 0.00 32 1008.3
20260902053021 83 273 5.0 14.0 0.00 0.00 0.00 32 1008.3
20260902051514 83 263 5.0 20.0 0.00 0.00 0.00 32 1008.5
20260902050014 83 253 8.0 17.0 0.00 0.00 0.00 31 1008.3
20260902044512 83 308 8.0 18.0 0.00 0.00 0.00 31 1008.4
20260902043015 83 300 10.0 19.0 0.00 0.00 0.00 31 1008.3
20260902041508 83 296 6.0 14.0 0.00 0.00 0.00 31 1008.3
20260902040006 83 283 7.0 15.0 0.00 0.00 0.00 32 1008.4
20260902034505 83 283 8.0 15.0 0.00 0.00 0.00 31 1008.5
20260902033005 83 277 5.0 16.0 0.00 0.00 0.00 30 1008.5
20260902031503 83 295 5.0 14.0 0.00 0.00 0.00 31 1008.9
20260902030100 82 286 10.0 22.0 0.00 0.00 0.00 30 1009.3
20260902024558 82 360 5.0 12.0 0.00 0.00 0.00 37 1009.4
20260902023055 82 40 5.0 13.0 0.00 0.00 0.00 38 1009.8
20260902021554 81 300 6.0 12.0 0.00 0.00 0.00 37 1010.0
20260902020046 80 341 6.0 13.0 0.00 0.00 0.00 38 1010.4
20260902014544 80 326 6.0 14.0 0.00 0.00 0.00 38 1010.7
20260902013042 80 300 6.0 14.0 0.00 0.00 0.00 37 1010.9
20260902011538 79 28 9.0 15.0 0.00 0.00 0.00 39 1011.1
20260902010044 79 355 5.0 13.0 0.00 0.00 0.00 40 1011.3
20260902004532 78 281 5.0 18.0 0.00 0.00 0.00 41 1011.7
20260902003029 78 306 4.0 19.0 0.00 0.00 0.00 43 1011.9
20260902001526 76 5 6.0 14.0 0.00 0.00 0.00 45 1012.1
20260902000025 75 14 6.0 12.0 0.00 0.00 0.00 46 1012.4
20260901234516 73 338 9.0 16.0 0.00 0.00 0.00 46 1012.5
20260901233012 73 333 5.0 14.0 0.00 0.00 0.00 49 1012.5
20260901231509 71 43 6.0 13.0 0.00 0.00 0.00 49 1012.6
20260901230010 70 313 5.0 13.0 0.00 0.00 0.00 51 1012.8
20260901224502 69 5 5.0 11.0 0.00 0.00 0.00 52 1012.9
20260901223100 69 360 3.0 8.0 0.00 0.00 0.00 53 1013.0
20260901221619 68 350 4.0 10.0 0.00 0.00 0.00 52 1013.0
20260901220105 68 331 4.0 9.0 0.00 0.00 0.00 53 1012.9
20260901214550 67 17 4.0 9.0 0.00 0.01 0.00 55 1012.9
20260901213105 66 32 3.0 10.0 0.00 0.01 0.00 55 1012.9
20260901211550 66 348 2.0 5.0 0.00 0.01 0.00 55 1013.0
20260901210041 66 22 3.0 5.0 0.00 0.01 0.00 56 1013.3
20260901204538 65 37 2.0 5.0 0.00 0.01 0.00 57 1012.9
20260901203044 65 28 4.0 6.0 0.00 0.01 0.00 56 1013.0
20260901201537 65 311 1.0 3.0 0.00 0.01 0.00 56 1013.4
20260901200046 66 308 1.0 5.0 0.00 0.01 0.00 54 1013.3
20260901194534 66 18 3.0 8.0 0.00 0.01 0.00 54 1012.6
20260901193044 65 17 2.0 8.0 0.00 0.01 0.00 56 1012.4
20260901191534 65 13 3.0 5.0 0.00 0.01 0.00 56 1012.1
20260901190032 65 5 3.0 8.0 0.00 0.01 0.00 56 1012.1
20260901184535 65 20 4.0 8.0 0.00 0.01 0.00 57 1012.0
20260901183030 65 5 2.0 8.0 0.00 0.01 0.00 57 1012.0
20260901181531 65 5 4.0 9.0 0.00 0.01 0.00 56 1011.9
20260901180029 65 328 3.0 8.0 0.00 0.01 0.00 56 1011.8
20260901174529 64 36 3.0 8.0 0.00 0.01 0.00 57 1011.9
20260901173027 65 15 3.0 8.0 0.00 0.01 0.00 56 1011.9
20260901171529 65 11 4.0 8.0 0.00 0.01 0.00 56 1011.9
20260901170025 65 26 3.0 9.0 0.00 0.01 0.00 57 1012.1
20260901164523 64 355 3.0 8.0 0.00 0.01 0.00 57 1012.3